Location: Tom
(33.0437°N, 96.9452°W)
Time: 14:30:10
(UTC-06:00)

Envisat - Pass Details

Date: 30 January 2019
Orbit: 764 x 766 km, 98.2° (Epoch: 17 February)

Event Time Altitude Azimuth Distance (km) Brightness Sun altitude
Rises 19:07:14 0° 162° (SSE) 3,216 6.2 -14.8°
Reaches altitude 10° 19:09:31 10° 160° (SSE) 2,294 5.4 -15.2°
Maximum altitude 19:14:34 74° 76° (ENE) 796 2.9 -16.3°
Drops below altitude 10° 19:19:38 10° 352° (N) 2,306 5.5 -17.3°
Sets 19:21:57 0° 351° (N) 3,236 6.2 -17.8°
